ARABSAT 5A

导读

ARABSAT 5A,又称阿拉伯卫星 5A,于 2010 年 6 月 26 日发射,由阿拉伯卫星通信组织运营。该卫星定位于地球静止轨道,主要服务中东、北非及欧洲部分区域,提供广播电视传输、宽带互联网接入、政府专网通信等业务,增强了阿拉伯地区卫星通信容量,替代部分老旧卫星,保障区域通信服务稳定可靠。

Basic Information
目录编号:
36745
目录名称:
ARABSAT 5A
国际标识:
2010-032B
轨道中心:
EARTH
卫星名称:
ARABSAT 5A
卫星全名:
--
卫星状态:
在轨 (已飞行5833 天)
发射日期:
2010-06-26 UTC
国别 :
(ASCO)
星等 :
--
Orbit Information
数据来源 国际轨道数据 AOE轨道数据
星历时间 2026-06-15T04:05:44+0800
7小时前
查看轨道信息
2026-06-15T05:00:00+0800
6小时前
查看轨道信息
半长轴 42164.42km 42164.644km
偏心率 0.0005738 0.0005527
轨道倾角 0.086° 0.086°
近地点辐角 44.483° 44.485°
升交点赤经 58.591° 58.809°
平近点角 131.968° 145.348°
近地点 35762.089km 35763.202km
远地点 35810.477km 35809.812km
周期 1436.081分钟 1436.092分钟
每日圈数 1.002729 1.002721
Detailed Information
使用方式:
暂无
2D Orbit Map
3D Orbit Map
Orbit Altitude Analysis Chart
Orbit Inclination Analysis Chart
Orbit Comprehensive Analysis Chart
View Comprehensive Chart